GFSSW_prec_cthk_159.txt.gz
RH
7 7 7 7 7 8 9 10 9 8 8 8 9 7 6 9 16 18 20 21 24 29 35 40 38 36 49 66 66 64 86 84 77 76 87 78 74 69 56 49 59 63 60 59 57
7 6 6 6 6 7 9 9 7 7 7 7 8 8 6 6 10 18 19 20 23 28 37 38 35 37 58 61 65 68 78 72 73 77 81 78 84 67 55 55 56 60 61 57 58
8 6 6 5 6 7 9 7 7 8 9 10 9 8 6 6 10 12 17 18 22 27 33 37 35 33 42 51 64 67 74 69 72 80 80 81 83 63 62 54 57 57 62 58 60
8 7 6 6 6 7 8 7 9 11 12 12 11 9 7 8 20 13 14 17 21 24 32 34 34 33 37 51 57 78 67 63 62 75 82 83 82 65 65 84 55 56 62 59 62
10 8 7 7 7 7 8 7 10 12 13 13 13 10 10 15 20 9 8 15 20 23 30 35 36 35 39 50 59 65 59 58 60 74 80 81 82 69 71 55 56 56 61 62 61
12 10 8 9 8 8 8 8 10 11 12 12 13 13 12 25 20 10 8 13 19 22 24 30 35 28 32 50 64 58 58 61 67 76 81 81 79 76 71 57 55 58 60 67 65
12 12 9 9 9 8 9 9 9 9 10 12 12 12 16 22 17 15 10 11 16 20 23 28 26 27 37 51 51 53 56 64 64 72 76 86 82 72 74 64 67 57 62 64 62
14 12 10 9 9 9 11 13 14 15 16 16 15 14 25 14 15 12 13 12 14 18 21 24 26 27 48 58 51 57 62 89 69 66 75 86 87 90 87 68 75 66 61 65 61
14 13 11 8 9 10 13 14 15 15 17 16 17 19 27 14 12 13 12 13 12 15 20 24 23 25 42 49 52 59 72 67 66 72 67 75 88 86 81 76 76 65 59 64 68
16 15 13 10 7 10 12 13 15 14 15 16 17 22 22 18 15 12 10 12 13 12 18 24 23 29 38 46 69 86 64 58 75 65 68 71 72 76 77 76 87 59 55 60 71
17 16 15 12 9 7 11 14 21 22 18 20 22 21 20 15 12 13 10 11 12 12 18 19 23 30 40 44 45 60 63 53 58 61 63 67 67 69 73 69 79 67 61 60 73
17 17 16 15 11 6 10 14 17 17 16 17 17 18 18 15 14 16 13 14 13 15 17 19 21 28 40 45 47 54 54 49 50 59 61 65 68 65 69 70 66 70 71 65 67
20 18 16 17 14 8 11 14 14 17 17 18 16 16 17 17 17 17 14 15 15 16 17 19 20 23 27 32 43 44 47 46 48 54 57 59 65 61 63 66 70 70 66 72 78
24 23 18 16 19 16 12 13 14 18 18 21 18 18 19 19 21 19 15 16 14 15 18 16 18 20 22 22 28 37 38 41 40 50 74 62 87 72 63 65 62 62 65 68 74
28 28 25 21 19 21 18 12 14 19 26 29 21 19 19 21 22 17 15 16 15 12 14 15 15 16 16 16 25 35 45 40 30 37 60 55 59 72 72 66 60 62 67 69 67
32 34 34 33 32 29 24 17 16 21 23 25 22 19 20 19 20 19 16 16 16 17 13 17 17 12 12 13 17 25 37 41 35 36 48 40 42 68 58 59 69 62 63 65 74
33 32 31 32 36 35 33 27 26 24 25 29 27 23 20 21 21 19 17 17 18 17 20 16 19 17 16 15 13 20 35 38 36 34 38 43 44 45 47 54 55 55 57 59 62
29 29 29 29 31 31 29 27 29 27 24 31 32 29 26 24 25 23 22 22 18 19 25 25 24 19 16 15 18 21 31 30 47 50 53 49 40 40 48 50 44 43 47 49 53
21 26 30 32 30 31 29 29 30 30 27 26 32 31 30 30 28 27 25 25 25 19 25 22 23 24 21 20 30 22 31 28 40 42 45 52 44 42 42 42 45 43 43 46 47
22 26 28 28 29 31 30 27 28 28 25 28 33 34 33 33 33 33 32 26 27 20 21 29 27 27 21 21 25 35 30 29 29 45 46 35 32 39 49 44 43 41 37 38 37
27 30 29 28 28 30 28 27 27 27 28 27 28 33 38 34 35 34 33 32 27 26 21 30 31 39 27 22 25 29 33 32 33 30 30 31 37 37 42 47 44 41 38 38 41
35 36 34 30 29 29 28 28 28 27 27 27 27 31 35 35 36 37 34 32 33 29 30 26 28 33 33 30 29 36 28 26 26 29 28 29 39 42 42 41 36 44 40 41 39
39 36 35 34 32 32 29 29 28 29 28 28 27 25 30 34 36 33 33 34 36 31 28 31 29 32 43 36 29 28 31 32 32 31 45 46 45 45 45 41 38 40 38 43 43
36 33 37 35 32 34 36 33 32 28 28 28 27 25 25 34 36 37 37 36 31 31 31 35 34 31 38 40 45 39 30 31 29 29 29 36 51 51 49 42 36 36 38 40 42
36 38 35 37 41 35 34 36 35 35 30 33 29 30 27 29 37 38 37 38 34 32 31 31 37 38 32 39 42 39 34 33 34 34 35 37 43 52 52 41 38 37 38 39 45
36 41 41 33 34 34 34 33 36 39 38 41 39 37 36 36 37 40 40 37 39 39 36 36 34 38 42 35 42 36 33 37 38 40 37 37 40 42 47 44 39 39 38 40 48
45 43 40 36 37 35 35 40 40 41 42 42 44 47 48 47 47 44 47 50 50 46 51 43 40 39 39 38 38 32 34 35 34 35 38 40 42 45 46 38 37 39 39 42 49

GFSSW_prec_cthk_162.txt.gz
RH
7 7 7 6 7 8 9 9 9 7 7 8 8 7 6 12 17 18 18 21 22 25 31 33 30 31 50 75 72 70 90 90 80 77 82 83 72 66 62 47 62 56 58 54 57
8 7 6 5 6 7 8 8 7 6 6 7 8 8 6 6 11 19 19 20 21 25 32 31 32 41 54 60 66 70 83 94 71 72 72 80 82 71 53 52 52 58 57 53 56
8 7 6 5 6 7 8 7 8 10 10 10 9 8 6 6 7 14 19 19 19 24 31 27 38 36 40 47 60 71 82 67 55 66 74 81 81 71 59 50 55 54 55 54 56
10 8 7 6 7 7 7 7 10 11 11 11 9 8 7 6 25 14 14 18 18 22 28 24 30 37 37 43 61 59 58 62 54 59 72 76 85 80 74 56 69 52 56 54 57
12 10 8 8 7 7 7 7 10 12 12 12 10 9 9 17 23 17 12 16 18 20 27 24 34 37 35 51 57 78 60 56 55 63 72 72 78 89 74 77 65 52 56 57 57
14 12 10 9 8 8 8 8 10 11 11 12 12 10 11 25 21 18 7 13 18 19 22 23 37 37 30 39 54 69 60 55 59 60 64 68 78 81 65 68 59 52 55 58 55
14 13 11 10 8 8 9 9 9 9 10 12 12 12 15 26 23 15 8 11 17 18 19 21 31 26 31 41 57 51 62 70 68 59 62 67 77 69 89 66 65 49 54 61 63
14 13 11 9 9 9 11 12 13 14 15 14 13 12 26 19 15 14 12 10 14 17 18 19 25 23 24 45 53 58 68 77 74 61 58 67 80 78 73 63 69 68 53 75 60
15 13 12 10 8 9 11 13 13 14 15 15 15 20 28 21 15 12 12 13 12 15 18 18 20 22 27 54 58 66 82 78 80 74 60 62 78 75 80 79 80 77 54 64 53
15 15 14 12 10 8 11 11 14 15 14 15 16 21 27 19 15 14 10 12 13 12 15 19 21 20 24 41 65 80 77 73 87 79 69 63 67 66 79 88 75 72 67 63 59
16 15 15 13 11 8 8 13 22 25 21 16 24 19 18 15 13 12 11 10 12 12 13 17 23 22 28 39 54 58 58 65 88 73 68 66 66 67 68 72 74 73 63 51 63
17 17 15 15 14 9 7 13 17 17 15 16 17 20 18 14 13 13 10 12 13 12 13 21 20 22 30 41 59 54 52 58 64 53 59 69 73 68 67 67 67 59 59 59 57
21 18 18 15 15 11 8 13 15 14 16 15 17 16 17 16 15 16 12 14 13 13 16 20 21 18 23 31 40 50 50 53 48 43 50 69 87 76 75 72 71 64 65 69 69
23 24 22 19 17 19 15 15 13 15 17 16 18 17 17 17 18 19 16 14 16 15 17 18 19 22 23 22 29 32 38 43 39 35 53 53 73 88 89 74 67 59 60 71 70
27 29 28 27 24 22 24 17 14 16 24 25 24 20 17 18 21 19 17 15 16 15 16 18 16 15 18 18 20 27 38 43 42 33 36 49 56 73 72 66 63 60 59 65 69
26 27 31 31 33 29 30 26 20 23 23 28 27 24 20 19 23 20 18 15 16 18 15 14 18 15 13 15 14 21 33 37 38 32 29 33 50 68 64 67 90 74 56 55 60
23 27 31 28 31 35 32 28 27 27 26 33 31 29 25 26 24 23 17 17 17 18 18 16 13 17 12 11 12 12 23 28 36 35 33 50 53 61 50 55 63 64 83 68 66
21 21 25 27 29 31 30 27 27 25 26 25 34 34 30 29 29 27 22 19 17 19 25 26 24 20 20 14 18 14 19 26 38 56 58 52 48 58 48 45 61 62 52 55 50
19 20 23 26 26 29 30 27 26 28 30 26 27 34 34 32 30 32 30 26 27 23 21 25 24 22 23 17 18 18 17 23 31 45 61 64 50 43 48 42 46 50 46 39 46
23 25 28 28 27 29 29 27 26 29 30 28 26 33 32 31 30 30 31 31 29 29 23 25 27 23 22 18 19 27 23 24 28 35 58 64 60 52 51 48 50 50 42 46 39
28 34 35 30 28 30 30 27 28 28 28 28 29 31 35 31 30 29 30 30 30 27 23 23 28 34 28 22 20 24 33 28 28 31 41 46 60 48 44 46 47 43 43 35 36
32 38 39 34 31 31 30 28 28 29 30 29 27 27 29 34 36 36 37 32 33 28 25 19 27 32 36 26 23 23 27 29 28 31 31 30 43 43 43 46 45 44 40 36 37
32 31 34 31 30 32 33 32 30 29 29 29 29 27 27 33 35 35 35 37 36 34 28 29 24 30 33 37 29 25 26 30 26 24 33 37 52 47 42 39 40 45 40 37 35
33 33 37 35 31 29 31 34 33 31 29 28 29 30 29 26 29 33 35 35 35 36 33 28 29 30 31 43 40 39 30 29 28 30 33 46 46 60 56 50 48 48 41 36 36
39 37 38 37 41 42 38 35 35 36 37 30 30 29 30 29 27 30 34 36 37 36 34 31 29 32 35 37 42 50 44 36 27 28 29 42 41 51 54 57 51 43 37 35 35
42 41 41 36 36 36 36 36 31 33 35 37 39 36 36 34 34 32 33 40 39 43 38 28 31 30 33 38 44 48 52 46 28 32 30 32 41 48 55 60 56 49 42 35 39
47 43 41 38 34 35 36 38 37 40 37 40 43 48 47 46 47 43 41 43 44 42 43 43 39 34 30 35 44 57 54 41 36 32 37 38 36 54 56 52 50 48 45 40 44

GFSSW_prec_cthk_165.txt.gz
RH
7 7 6 6 6 7 8 9 8 6 6 7 7 6 7 13 16 17 17 18 22 23 26 28 26 38 54 70 79 90 80 83 85 84 84 83 81 69 64 54 64 59 60 53 65
8 7 6 6 6 7 8 7 6 7 7 7 7 8 6 6 12 15 18 18 19 22 27 29 30 45 52 57 69 82 83 84 68 72 80 87 81 77 73 54 56 54 57 56 62
9 8 7 6 6 7 7 6 9 10 10 9 9 8 6 6 5 11 16 19 19 21 27 27 26 39 41 49 63 62 71 72 65 64 79 80 79 77 80 55 55 52 57 53 60
12 9 8 8 7 7 7 8 10 11 11 11 9 9 7 5 20 11 14 17 18 19 28 25 26 34 41 48 55 67 73 66 59 60 72 74 77 83 74 65 67 54 55 53 59
15 13 10 9 8 7 7 8 10 11 11 11 10 9 8 11 17 17 12 15 17 17 26 25 27 37 44 45 57 67 68 64 58 69 74 73 76 78 87 78 82 54 55 53 57
15 14 12 11 9 8 8 8 9 11 10 11 11 10 10 20 20 19 15 11 16 17 21 22 29 35 38 40 51 66 68 68 63 70 79 74 82 80 80 82 74 58 53 57 63
14 14 12 11 10 8 9 9 8 9 9 11 11 11 10 21 17 17 11 9 14 17 20 19 26 29 33 36 53 71 53 60 76 74 69 74 87 82 76 76 70 58 49 56 50
13 12 12 10 9 9 10 12 13 13 14 13 12 11 11 18 16 13 11 8 14 17 17 16 17 23 27 35 53 88 58 68 80 85 71 71 85 82 77 80 73 59 52 67 63
14 13 12 11 9 8 9 12 12 12 13 14 13 19 21 21 20 18 13 11 11 15 17 17 16 18 32 36 63 72 74 72 79 75 72 69 78 75 73 78 66 74 60 74 66
16 14 13 12 11 9 8 11 16 17 18 13 15 19 23 19 18 12 11 12 13 13 16 18 18 19 22 29 43 67 67 60 69 74 69 64 67 67 69 73 69 80 76 58 60
19 16 14 13 12 10 7 12 19 23 19 16 18 16 19 17 14 13 10 11 12 13 13 15 19 19 28 30 47 58 62 57 64 63 65 76 69 68 70 74 79 81 74 59 59
23 18 15 15 13 13 8 10 16 16 14 14 14 16 18 16 14 13 11 11 11 13 12 14 17 17 26 38 44 48 61 62 64 68 76 70 83 84 74 77 79 82 73 66 58
24 21 19 17 14 13 12 7 11 12 14 9 10 14 17 16 14 14 13 12 13 13 13 15 18 20 24 31 45 43 51 54 53 64 87 79 81 78 71 69 78 79 75 76 66
22 23 24 23 20 19 18 17 15 15 17 14 16 16 19 19 16 15 16 14 15 15 14 16 20 21 21 25 33 31 40 50 52 59 61 64 83 74 69 68 68 65 70 71 82
20 23 25 26 26 25 28 25 19 21 29 20 21 20 19 17 19 20 19 17 15 17 15 18 18 18 18 19 20 22 32 42 41 44 39 51 62 58 67 66 58 59 55 66 73
20 20 23 26 30 29 32 28 24 26 29 28 27 27 27 22 23 24 20 17 16 17 16 15 16 16 15 14 16 15 26 30 37 38 40 43 54 71 73 64 57 55 49 48 60
20 20 21 27 29 31 31 27 27 32 26 32 32 29 29 28 27 28 24 20 17 19 18 17 15 18 18 14 12 14 19 27 30 38 54 55 60 67 61 60 52 43 46 48 57
21 20 19 21 25 31 31 29 29 27 27 28 33 35 32 29 29 30 29 24 17 17 20 22 25 24 23 20 17 13 13 21 34 56 57 51 76 72 56 58 54 40 34 47 60
22 20 20 22 24 26 29 32 25 28 29 32 30 34 34 33 31 32 28 28 26 21 23 23 26 25 24 23 18 16 16 14 24 46 52 54 58 48 60 63 55 51 43 45 53
25 28 27 27 28 29 32 31 26 28 30 30 32 29 34 36 34 32 31 28 31 30 24 28 30 25 24 22 18 16 19 21 23 42 53 57 57 57 55 64 58 57 51 47 43
28 35 36 36 33 31 33 29 27 29 33 33 30 28 30 34 36 35 33 31 30 32 30 26 28 28 31 24 23 17 24 30 30 31 49 64 59 47 59 74 63 61 54 43 37
29 38 36 34 31 31 32 31 27 29 31 30 30 28 31 33 33 35 38 34 32 33 32 26 24 28 33 34 33 25 21 27 38 34 37 42 56 47 48 60 58 58 51 48 40
26 29 35 33 33 30 31 31 32 31 31 32 33 34 29 33 34 33 38 40 38 39 34 29 27 26 29 32 33 30 25 24 30 29 31 42 58 53 51 57 55 54 54 53 49
29 34 37 34 36 38 34 33 33 32 34 31 31 31 30 29 32 32 34 36 39 40 37 32 30 30 31 34 38 40 33 32 34 39 39 46 51 55 55 56 58 59 60 60 46
41 42 40 42 41 41 38 38 37 35 34 34 36 32 31 32 30 31 31 32 36 37 38 39 34 31 29 34 37 39 36 33 40 41 40 45 45 47 51 50 51 53 56 38 35
43 42 40 39 40 41 39 39 38 34 33 34 38 40 41 39 34 30 30 29 35 40 44 38 41 35 32 29 37 42 42 38 36 36 39 40 41 39 43 44 48 52 43 44 41
45 47 45 38 35 35 35 40 38 39 38 38 38 42 46 46 41 41 36 35 34 40 46 49 45 43 40 31 36 48 41 44 46 43 45 56 44 45 47 47 48 43 46 47 46

GFSSW_prec_cthk_168.txt.gz
RH
8 7 6 6 6 7 8 8 7 6 6 7 7 6 10 14 16 17 19 20 24 26 26 26 38 53 66 79 81 84 90 83 83 85 79 78 84 84 77 58 58 59 57 54 56
9 8 7 6 6 7 7 6 7 8 8 8 8 7 6 7 12 16 19 20 21 23 26 25 35 48 56 65 72 75 83 82 74 64 78 82 87 82 78 71 51 54 57 57 57
12 9 9 8 7 7 6 7 9 10 10 10 9 8 7 6 6 14 17 19 19 22 25 25 39 44 48 55 59 71 78 73 64 67 81 90 86 84 88 71 50 52 55 55 58
14 12 11 9 8 7 6 8 10 10 10 10 9 8 8 5 11 11 15 18 18 20 23 27 40 43 39 44 57 69 72 70 61 67 77 85 81 83 83 74 58 56 54 53 52
14 14 12 11 9 8 7 7 10 10 10 10 10 9 8 7 17 17 15 17 18 18 21 31 40 40 36 48 70 65 74 69 61 70 72 74 79 80 80 77 78 63 52 50 52
13 13 13 11 10 9 8 7 9 10 10 10 10 10 9 12 17 18 15 15 16 17 19 25 36 32 33 45 48 65 74 71 76 70 73 72 80 82 87 86 81 65 53 53 57
13 12 11 11 10 10 9 9 8 8 9 11 10 10 9 11 16 15 14 9 14 17 19 23 26 24 31 47 50 65 72 70 76 70 69 75 86 84 81 82 84 61 53 57 61
13 12 10 10 9 9 9 10 11 12 13 12 11 10 9 12 15 15 14 8 13 17 19 20 19 23 33 40 44 63 68 72 69 65 66 68 81 87 85 81 82 67 54 56 56
16 13 12 11 10 8 9 10 12 13 13 13 12 13 17 18 20 16 14 11 12 16 19 19 17 20 33 40 53 61 76 70 72 67 69 69 81 86 82 83 85 66 68 73 75
21 17 14 12 11 9 8 9 13 15 17 17 13 14 19 19 17 15 13 12 12 14 17 18 18 21 35 36 38 54 64 65 67 64 69 71 74 75 81 83 87 78 73 76 71
23 22 16 14 13 11 9 9 15 20 15 15 14 15 17 17 17 15 11 12 12 13 14 17 18 18 30 29 36 39 62 65 67 69 72 74 72 73 75 79 86 83 80 76 68
21 21 20 17 15 12 11 8 14 13 12 10 12 14 16 16 15 16 11 10 12 13 12 14 15 18 27 28 40 51 56 61 68 70 78 80 77 67 67 66 75 82 87 75 64
19 19 20 21 19 14 12 11 14 14 13 9 9 10 15 17 16 16 14 12 12 13 13 13 14 21 23 25 29 42 52 56 65 72 70 72 69 64 58 63 66 73 82 75 65
15 16 19 22 22 19 18 18 16 14 16 14 14 13 17 18 16 17 16 15 14 15 16 14 17 21 22 23 28 38 41 48 64 67 74 65 65 61 56 64 66 62 61 72 71
15 14 16 21 24 23 24 24 25 22 27 24 21 20 24 21 17 18 18 17 17 16 16 16 17 17 19 20 23 26 31 39 58 60 65 73 67 54 49 59 60 54 60 62 70
19 19 17 18 25 25 30 29 26 29 31 24 27 29 31 28 23 20 22 20 19 17 17 16 16 17 17 19 20 18 22 28 35 47 52 60 61 60 61 54 55 51 55 57 60
20 20 18 19 26 29 29 29 26 32 26 28 31 30 30 29 28 25 24 23 23 20 18 16 15 18 19 21 21 20 18 27 31 37 43 53 52 58 55 53 50 48 50 56 56
21 21 19 18 22 27 28 28 26 27 30 27 31 30 29 30 30 28 28 26 25 22 19 22 23 19 19 21 24 21 17 22 25 47 53 55 53 51 52 50 47 43 48 58 58
23 24 22 21 21 26 27 31 26 29 28 31 30 28 30 35 34 34 30 28 28 29 29 23 25 24 25 24 23 21 16 17 29 44 45 43 45 45 50 51 53 46 45 46 57
21 29 28 29 26 27 31 33 26 28 30 31 33 31 32 33 35 36 36 31 29 29 31 28 26 25 24 22 23 18 18 20 25 37 44 51 49 53 53 53 51 50 46 38 40
20 30 32 34 32 31 34 32 27 28 32 33 34 34 33 31 32 35 32 33 31 32 32 33 30 26 25 25 26 27 21 20 24 35 48 53 54 47 46 50 52 49 48 47 39
21 33 34 32 33 32 30 29 30 30 33 34 32 33 32 32 32 33 33 34 34 33 35 34 34 32 26 30 32 32 30 22 32 33 40 50 47 43 46 45 48 51 51 54 52
25 31 32 32 36 35 32 30 30 30 32 33 34 31 31 31 32 34 33 35 36 38 39 36 33 33 27 28 32 34 29 28 30 31 35 45 46 45 43 47 47 52 50 53 55
34 41 37 36 38 39 39 35 33 32 32 34 33 31 29 30 33 33 34 33 36 36 38 37 38 32 31 28 30 35 37 37 34 39 43 50 55 48 44 49 50 52 54 61 57
41 43 43 46 42 43 42 40 37 35 35 34 33 34 33 30 35 37 34 35 37 38 41 38 39 37 33 31 33 34 35 38 38 38 42 42 50 55 42 46 50 54 59 57 50
40 42 42 44 44 44 44 44 43 40 38 40 41 40 37 39 37 38 36 36 39 40 42 43 40 38 38 36 34 35 35 35 37 39 42 41 43 56 59 55 52 54 55 52 46
36 39 40 39 38 38 40 46 47 46 42 41 41 43 45 42 41 37 34 35 36 38 45 47 47 47 42 38 37 40 34 32 38 41 40 40 41 47 58 56 49 47 46 44 40

GFSSW_prec_cthk_171.txt.gz
RH
9 8 7 7 7 7 8 7 7 7 8 8 7 8 13 16 18 20 23 22 27 28 26 35 44 56 55 65 67 70 82 79 75 81 84 83 80 82 80 72 61 66 56 50 50
11 10 8 8 7 7 7 6 8 9 9 9 9 8 7 10 15 19 20 22 25 27 26 31 46 52 51 59 64 68 78 80 67 66 76 85 84 85 82 66 59 56 56 52 48
13 12 11 9 8 7 6 7 9 10 10 10 9 9 8 6 8 17 19 20 21 25 24 34 50 53 48 45 57 63 72 73 65 67 74 85 91 86 83 75 55 54 56 53 50
14 13 12 10 9 8 7 7 10 10 10 10 9 8 8 6 8 12 17 20 20 22 24 36 44 48 41 46 55 69 73 69 60 65 74 84 85 85 84 81 59 56 53 52 51
13 13 12 11 10 9 8 7 9 10 10 10 10 9 8 8 17 14 16 18 19 20 23 35 46 40 40 53 54 61 63 61 61 64 70 72 74 80 77 82 72 64 54 51 54
13 12 11 12 11 10 9 7 8 9 9 10 10 10 9 10 18 17 15 17 19 19 23 38 37 34 40 50 50 57 67 66 70 66 65 70 75 83 82 79 77 72 50 53 55
13 12 11 10 10 10 10 9 9 9 10 11 10 10 9 13 19 17 16 12 16 19 25 36 32 31 33 42 47 59 68 67 70 73 71 69 79 89 84 86 83 77 51 57 54
16 13 11 10 9 8 9 9 10 11 12 12 12 10 9 10 15 16 14 9 13 18 19 27 26 29 34 39 45 62 65 69 71 74 75 74 77 85 89 87 82 77 58 58 59
19 18 14 11 10 9 8 9 10 12 14 14 13 12 13 16 20 18 16 11 14 19 20 21 20 24 36 41 52 58 68 70 71 74 74 71 76 84 86 87 86 79 61 60 61
21 20 19 14 12 11 9 8 10 12 13 15 16 13 16 19 18 17 15 13 13 17 19 20 20 24 28 41 41 53 64 63 68 71 69 73 71 73 72 77 81 76 71 67 68
19 20 19 18 14 12 11 8 12 17 17 13 13 14 16 17 18 16 14 13 12 15 17 20 20 21 32 32 36 40 50 56 68 67 74 75 71 72 70 75 79 80 78 67 68
15 16 17 18 18 14 12 9 12 15 12 10 9 11 14 15 17 15 13 12 12 13 15 17 18 20 31 29 39 47 55 61 68 70 71 70 67 67 67 68 70 78 77 74 62
14 13 15 17 19 18 13 13 15 14 13 9 9 8 14 16 16 15 14 12 12 13 13 14 16 21 27 26 30 39 48 56 62 67 71 64 60 62 65 66 68 71 74 77 62
15 13 12 14 19 19 18 17 15 14 17 13 14 13 16 19 18 17 16 15 14 14 14 15 14 23 24 24 23 30 36 42 56 68 72 62 66 59 60 63 64 62 70 72 67
16 14 14 13 18 22 22 21 20 22 24 23 24 23 23 24 20 19 18 17 17 16 15 16 17 20 23 21 22 25 30 36 49 64 71 72 70 55 57 61 62 60 62 64 70
22 19 17 17 18 23 24 25 27 28 27 27 28 30 30 29 27 23 19 20 20 19 17 17 17 19 22 21 21 19 23 33 44 56 52 46 65 53 55 51 54 59 60 59 62
22 21 19 18 19 26 28 28 27 30 23 26 31 31 32 32 31 29 26 25 24 22 18 17 17 18 19 20 19 20 23 25 26 41 49 45 56 44 44 53 53 53 52 54 56
20 21 21 19 18 24 26 28 25 24 26 28 29 30 31 31 31 31 30 30 28 25 24 22 20 21 22 25 24 23 22 23 23 33 48 51 46 39 38 48 48 44 43 51 55
18 24 24 23 22 25 25 28 24 27 28 30 29 29 30 31 30 30 33 32 30 28 29 28 24 24 24 24 23 24 22 18 31 42 47 40 36 36 37 48 48 47 42 41 54
17 23 26 27 25 29 30 32 29 29 30 31 34 30 31 30 30 30 32 30 31 34 34 34 31 27 26 25 23 20 21 20 22 28 34 37 44 41 37 43 49 53 46 39 50
22 25 27 32 31 31 33 33 30 29 32 33 33 35 33 31 30 31 30 31 31 31 34 35 34 30 29 25 27 26 23 22 22 27 29 39 44 37 37 43 47 50 41 33 33
22 31 31 31 33 36 32 29 28 30 32 35 34 35 35 33 32 31 32 31 31 32 34 34 34 33 33 28 28 30 29 30 27 24 37 45 41 34 40 45 51 48 48 44 42
27 33 34 34 36 36 35 32 32 32 33 33 33 34 34 34 35 34 33 33 34 34 37 35 34 33 33 33 31 29 32 33 30 29 35 43 40 36 37 41 49 52 50 50 48
34 36 36 37 38 39 40 38 36 34 34 34 33 33 33 32 33 34 35 35 36 37 40 38 38 37 32 32 30 33 37 36 35 39 40 44 40 40 37 40 45 50 50 51 49
35 40 43 45 42 41 40 39 38 38 37 37 36 37 37 36 37 40 39 38 37 41 41 43 40 39 37 33 31 31 34 38 38 40 39 38 43 40 37 41 42 45 49 49 46
35 39 38 41 43 42 43 42 43 42 42 41 41 41 41 40 39 39 39 39 39 39 43 45 46 43 41 42 39 35 35 36 38 39 40 39 38 35 37 41 41 43 49 50 52
33 35 36 37 39 37 39 43 44 46 44 47 45 44 44 44 42 38 36 36 38 41 40 46 49 51 46 43 43 43 37 36 37 36 39 42 35 36 38 41 41 44 47 51 55